Voltar ao catálogo

TITAN 3C TRANSTAGE DEB

AtivoLEO
NORAD 1684·DEBRIS·🇺🇸 United States

Lançado Oct 15, 1965 de Cape Canaveral Space Force Station

Loading…

Próximas Passagens (próximas 24 horas)

TLE

AtualizadoSource: Space-Track

Época: Sep 14, 2026, 09:42 UTC

1 01684U 65082AX  26257.40476186  .00001277  00000-0  32664-3 0  9999
2 01684  32.2143  27.8816 0165668 121.9627 239.7235 14.40524365155419

Acompanhe TITAN 3C TRANSTAGE DEB em tempo real com AllMySat

Download on the App Store